Location: Ann Arbor
(42.2710°N, 83.7260°W)
Time: 10:51:48
(UTC-05:00)

N. Korean satellite - Visible Passes

Search period start: 17 December 2017 00:00
Search period end: 27 December 2017 00:00
Orbit: 461 x 513 km, 97.2° (Epoch: 16 December)

Date Brightness Start Highest point End Pass type
(mag) Time Alt. Az. Time Alt. Az. Time Alt. Az.
17 Dec 10.2 06:12:57 10° ENE 06:13:44 11° E 06:14:31 10° ESE visible
17 Dec 6.6 18:20:07 10° SSE 18:23:48 63° ENE 18:27:32 10° N visible
18 Dec 6.8 07:20:20 10° NNE 07:24:02 80° ESE 07:27:38 10° S visible
18 Dec 7.4 17:56:59 10° SE 18:00:20 32° ENE 18:03:43 10° N visible
18 Dec 9.6 19:31:24 10° SW 19:33:54 17° W 19:36:26 10° NW visible
19 Dec 8.3 06:56:57 10° NNE 07:00:25 38° E 07:03:47 10° SSE visible
19 Dec 8.1 17:34:21 10° ESE 17:36:56 18° ENE 17:39:31 10° NNE visible
19 Dec 8.5 19:06:49 10° SSW 19:10:12 32° W 19:13:36 10° NNW visible
20 Dec 9.5 06:33:58 10° NE 06:36:42 20° E 06:39:23 10° SE visible
20 Dec 7.1 18:42:51 10° S 18:46:34 64° W 18:50:19 10° NNW visible
21 Dec 10.3 06:12:28 10° E 06:12:55 10° E 06:13:21 10° E visible
21 Dec 6.6 18:19:18 10° SSE 18:23:00 62° ENE 18:26:44 10° N visible
22 Dec 6.8 07:19:32 10° NNE 07:23:11 78° E 07:26:46 10° S visible
22 Dec 7.4 17:56:11 10° SE 17:59:31 32° ENE 18:02:53 10° N visible
22 Dec 9.6 19:30:32 10° SW 19:33:06 17° W 19:35:40 10° NW visible
23 Dec 8.3 06:56:10 10° NNE 06:59:34 37° E 07:02:53 10° SSE visible
23 Dec 8.1 17:33:34 10° ESE 17:36:06 18° ENE 17:38:41 10° NNE visible
23 Dec 8.5 19:05:59 10° SSW 19:09:22 32° W 19:12:48 10° NNW visible
24 Dec 9.6 06:33:11 10° NE 06:35:51 19° E 06:38:27 10° SE visible
24 Dec 7.1 18:42:01 10° S 18:45:44 65° W 18:49:28 10° NNW visible
25 Dec 6.6 18:18:28 10° SSE 18:22:10 61° ENE 18:25:53 10° N visible
26 Dec 6.8 07:18:42 10° NNE 07:22:19 77° ESE 07:25:51 10° S visible
26 Dec 7.4 17:55:20 10° SE 17:58:40 31° ENE 18:02:01 10° N visible
26 Dec 9.6 19:29:39 10° SW 19:32:14 18° W 19:34:49 10° NW visible
